欧洲卫星公司-6星 (SES-6)

导读

SES 6是由SES公司部署、欧洲阿斯特里姆公司基于E3000平台建造的通信卫星,于2013年6月3日由质子-M火箭从拜科努尔航天中心发射入轨。卫星质量约6100千克,设计服役寿命15年,配备36台C波段转发器和48台Ku波段转发器,可覆盖北美、拉美、欧洲及大西洋区域,支持直播到户、VSAT网络服务等业务,接替老化的NSS-806卫星提供通信服务。

基本信息
目录编号:
39172
目录名称:
SES 6
国际标识:
2013-026A
轨道中心:
EARTH
卫星名称:
欧洲卫星公司-6星
卫星全名:
欧洲卫星公司-6星 (SES-6)
卫星状态:
在轨 (已飞行4757 天)
发射日期:
2013-06-03 UTC
国别 :
(SES)
星等 :
--
轨道信息
数据来源 国际轨道数据 AOE轨道数据
星历时间 2026-06-12T14:09:42+0800
12小时前
查看轨道信息
2026-06-12T13:00:00+0800
13小时前
查看轨道信息
半长轴 42164.953km 42164.868km
偏心率 0.0002504 0.0002484
轨道倾角 0.017° 0.017°
近地点辐角 115.028° 111.081°
升交点赤经 341.669° 345.338°
平近点角 215.823° 198.628°
近地点 35776.257km 35776.257km
远地点 35797.375km 35797.205km
周期 1436.108分钟 1436.104分钟
每日圈数 1.00271 1.002713
详细信息
卫星平台:
Eurostar-3000
平衡模式:
三轴稳定
覆盖范围:
大西洋
运营商:
欧洲卫星公司
运营商所在国:
卢森堡
制造商(研发单位):
轨道ATK公司
制造商所在国:
美国
使用方式:
暂无
卫星简介
欧洲卫星公司:成立于1985年,总部设在卢森堡。该公司通过运营ASTRA、AMERICOM及 NEW SKIES卫星系统为客户提供电视、广播和多媒体直接到户的信息传送服务,是世界第二大卫星运营商。该卫星仍在工作。
2D轨道图
3D轨道图
轨道高度分析图
轨道倾角分析图
轨道综合分析图
查看轨道综合分析图